Weather History for KAEG - January, 2013

Change the Weather History Date:

Sunday, January 6, 2013

  Actual Average Record
Temperature  
Mean Temperature 22 °F -  
Max Temperature 37 °F - - ()
Min Temperature 6 °F - - ()
Degree Days  
Heating Degree Days 44    
Moisture  
Dew Point 0 °F    
Average Humidity 43    
Maximum Humidity 67    
Minimum Humidity 24    
Precipitation  
Precipitation 0.00 in - - ()
Sea Level Pressure  
Sea Level Pressure 30.27 in    
Wind  
Wind Speed 6 mph (NNE)    
Max Wind Speed 10 mph    
Max Gust Speed -    
Visibility 10 miles    
Events      
T = Trace of Precipitation, MM = Missing Value Source: NWS Daily Summary

Daily Weather History Graph

Daily Weather History Graph

Search for Another Location

Airport or City:

Trip Planner

Search our weather history database for the weather conditions in past years. The results will help you decide how hot, cold, wet, or windy it might be!

Date:

Astronomy

Jan. 06, 2013 Rise Set
Actual Time 7:16 AM MST 5:10 PM MST
Civil Twilight 6:48 AM MST 5:38 PM MST
Nautical Twilight 6:16 AM MST 6:09 PM MST
Astronomical Twilight 5:45 AM MST 6:40 PM MST
Moon 1:38 AM MST (1/6) 12:35 PM MST (1/6)
Length of Visible Light 10h 50m
Length of Day
9h 54m
Waning Crescent, 32% of the Moon is Illuminated
Jan 6
Waning Crescent
Jan 11
New
Jan 18
First Quarter
Jan 26
Full
Feb 3
Last Quarter

Hourly Weather History & Observations

Time (MST) Temp. Windchill Dew Point Humidity Pressure Visibility Wind Dir Wind Speed Gust Speed Precip Events Conditions
12:15 AM 15.8 °F 5.1 °F -4.0 °F 41% 30.36 in 10.0 mi North 8.1 mph - N/A   Clear
12:35 AM 15.8 °F 5.1 °F -2.2 °F 45% 30.35 in 10.0 mi North 8.1 mph - N/A   Clear
12:55 AM 14.0 °F 3.9 °F -2.2 °F 49% 30.35 in 10.0 mi North 6.9 mph - N/A   Clear
1:15 AM 14.0 °F 3.9 °F -2.2 °F 49% 30.35 in 10.0 mi North 6.9 mph - N/A   Clear
1:35 AM 14.0 °F 2.0 °F -2.2 °F 49% 30.35 in 10.0 mi North 9.2 mph - N/A   Clear
1:55 AM 14.0 °F 3.9 °F -0.4 °F 53% 30.35 in 10.0 mi North 6.9 mph - N/A   Clear
2:15 AM 14.0 °F 2.9 °F -0.4 °F 53% 30.35 in 10.0 mi North 8.1 mph - N/A   Clear
2:35 AM 14.0 °F 1.2 °F -0.4 °F 53% 30.35 in 10.0 mi North 10.4 mph - N/A   Clear
2:55 AM 15.8 °F 6.1 °F -0.4 °F 49% 30.35 in 10.0 mi NNE 6.9 mph - N/A   Clear
3:15 AM 15.8 °F 5.1 °F -0.4 °F 49% 30.35 in 10.0 mi North 8.1 mph - N/A   Clear
3:35 AM 12.2 °F 0.7 °F -0.4 °F 57% 30.35 in 10.0 mi North 8.1 mph - N/A   Clear
3:55 AM 12.2 °F 1.7 °F -0.4 °F 57% 30.34 in 10.0 mi North 6.9 mph - N/A   Clear
4:15 AM 10.4 °F 4.0 °F -0.4 °F 62% 30.34 in 10.0 mi North 3.5 mph - N/A   Clear
4:35 AM 10.4 °F - -0.4 °F 62% 30.33 in 10.0 mi Calm Calm - N/A   Clear
5:50 AM 8.6 °F - -0.4 °F 67% 30.34 in 10.0 mi Calm Calm - N/A   Clear
6:50 AM 8.6 °F - -2.2 °F 62% 30.35 in 10.0 mi Calm Calm - N/A   Clear
7:50 AM 6.8 °F - -2.2 °F 67% 30.36 in 10.0 mi Calm Calm - N/A   Clear
8:50 AM 19.4 °F 10.4 °F 1.4 °F 46% 30.37 in 10.0 mi NE 6.9 mph - N/A   Clear
9:50 AM 24.8 °F 14.6 °F 1.4 °F 36% 30.37 in 10.0 mi NE 10.4 mph - N/A   Clear
11:50 AM 32.0 °F 25.6 °F 5.0 °F 32% 30.31 in 10.0 mi NNE 6.9 mph - N/A   Clear
12:50 PM 33.8 °F 28.6 °F 5.0 °F 30% 30.27 in 10.0 mi East 5.8 mph - N/A   Clear
1:50 PM 35.6 °F 32.8 °F 3.2 °F 26% 30.23 in 10.0 mi East 3.5 mph - N/A   Mostly Cloudy
2:50 PM 35.6 °F 29.2 °F 3.2 °F 26% 30.21 in 10.0 mi SE 8.1 mph - N/A   Mostly Cloudy
3:50 PM 37.4 °F 30.3 °F 3.2 °F 24% 30.20 in 10.0 mi SSE 10.4 mph - N/A   Mostly Cloudy
4:50 PM 32.0 °F - 1.4 °F 27% 30.19 in 10.0 mi Calm Calm - N/A   Mostly Cloudy
5:50 PM 28.4 °F - -0.4 °F 29% 30.19 in 10.0 mi Calm Calm - N/A   Mostly Cloudy
6:50 PM 23.0 °F - -2.2 °F 33% 30.18 in 10.0 mi Calm Calm - N/A   Clear
7:50 PM 23.0 °F - -0.4 °F 36% 30.17 in 10.0 mi Calm Calm - N/A   Clear
9:35 PM 24.8 °F - -0.4 °F 34% 30.15 in 10.0 mi Calm Calm - N/A   Clear
9:50 PM 24.8 °F - -0.4 °F 34% 30.15 in 10.0 mi Calm Calm - N/A   Clear
9:55 PM 23.0 °F - -0.4 °F 36% 30.15 in 10.0 mi Calm Calm - N/A   Clear
10:35 PM 21.2 °F - -0.4 °F 39% 30.14 in 10.0 mi Calm Calm - N/A   Clear
10:55 PM 24.8 °F - 1.4 °F 36% 30.13 in 10.0 mi Calm Calm - N/A   Clear
11:15 PM 26.6 °F - 1.4 °F 34% 30.13 in 10.0 mi Calm Calm - N/A   Clear
11:35 PM 26.6 °F 17.5 °F 1.4 °F 34% 30.11 in 10.0 mi ENE 9.2 mph - N/A   Clear
11:55 PM 26.6 °F - 3.2 °F 37% 30.12 in 10.0 mi Calm Calm - N/A   Clear